TimeEDT,TemperatureF,Dew PointF,Humidity,Sea Level PressureIn,VisibilityMPH,Wind Direction,Wind SpeedMPH,Gust SpeedMPH,PrecipitationIn,Events,Conditions,WindDirDegrees,DateUTC
12:13 AM,72.9,66.2,80,30.00,7.0,SSW,4.6,-,N/A,,Scattered Clouds,200,2013-08-22 04:13:00
12:33 AM,74.3,66.4,76,30.00,10.0,SSW,5.8,-,N/A,,Mostly Cloudy,210,2013-08-22 04:33:00
12:52 AM,74.3,66.4,76,30.03,10.0,West,9.2,-,N/A,,Overcast,270,2013-08-22 04:52:00
1:09 AM,72.7,66.6,81,30.04,7.0,West,10.4,19.6,N/A,Rain,Light Rain,280,2013-08-22 05:09:00
1:30 AM,70.2,64.9,83,30.03,10.0,WNW,9.2,-,N/A,Rain,Light Rain,300,2013-08-22 05:30:00
1:50 AM,69.8,63.9,81,30.01,10.0,NW,9.2,-,N/A,Rain,Light Rain,310,2013-08-22 05:50:00
2:10 AM,69.4,64.0,83,30.01,10.0,South,6.9,-,N/A,Rain,Light Rain,170,2013-08-22 06:10:00
2:30 AM,68.5,64.8,88,29.96,10.0,SSE,3.5,-,N/A,Rain,Light Rain,150,2013-08-22 06:30:00
2:50 AM,68.9,63.9,84,29.92,10.0,ENE,6.9,-,N/A,Rain,Light Rain,70,2013-08-22 06:50:00
3:10 AM,67.5,63.9,88,29.94,10.0,NW,4.6,-,N/A,,Scattered Clouds,310,2013-08-22 07:10:00
3:30 AM,66.2,63.7,92,29.97,10.0,West,6.9,-,N/A,,Clear,280,2013-08-22 07:30:00
3:50 AM,67.1,64.8,92,29.99,10.0,West,5.8,-,N/A,,Clear,270,2013-08-22 07:50:00
4:10 AM,66.7,64.4,92,30.01,10.0,West,4.6,-,N/A,,Clear,280,2013-08-22 08:10:00
4:31 AM,65.8,63.7,93,30.01,10.0,WSW,3.5,-,N/A,,Clear,250,2013-08-22 08:31:00
4:51 AM,65.3,63.5,94,30.02,10.0,WSW,4.6,-,N/A,,Clear,240,2013-08-22 08:51:00
5:08 AM,64.9,63.3,94,30.03,10.0,WSW,5.8,-,N/A,,Clear,240,2013-08-22 09:08:00
5:28 AM,63.9,62.2,94,30.04,10.0,WNW,3.5,-,N/A,,Clear,300,2013-08-22 09:28:00
5:48 AM,64.4,63.0,95,30.05,10.0,Calm,Calm,-,N/A,,Clear,0,2013-08-22 09:48:00
6:08 AM,63.7,62.2,95,30.05,10.0,WNW,3.5,-,N/A,,Clear,290,2013-08-22 10:08:00
6:29 AM,64.0,62.6,95,30.06,10.0,WNW,3.5,-,N/A,,Clear,300,2013-08-22 10:29:00
6:49 AM,63.5,61.9,94,30.06,10.0,WNW,3.5,-,N/A,,Clear,290,2013-08-22 10:49:00
7:09 AM,63.1,61.7,95,30.06,10.0,West,3.5,-,N/A,,Clear,280,2013-08-22 11:09:00
7:29 AM,64.4,62.8,94,30.06,10.0,Calm,Calm,-,N/A,,Clear,0,2013-08-22 11:29:00
7:49 AM,64.4,63.0,95,30.06,10.0,West,3.5,-,N/A,,Clear,260,2013-08-22 11:49:00
8:09 AM,65.5,63.9,94,30.06,10.0,West,3.5,-,N/A,,Clear,260,2013-08-22 12:09:00
8:29 AM,66.6,64.6,93,30.06,10.0,West,3.5,-,N/A,,Clear,260,2013-08-22 12:29:00
8:52 AM,68.4,64.9,89,30.06,10.0,West,5.8,-,N/A,,Clear,270,2013-08-22 12:52:00
9:12 AM,69.4,65.1,86,30.06,10.0,West,4.6,-,N/A,,Clear,280,2013-08-22 13:12:00
9:32 AM,70.7,65.3,83,30.05,10.0,West,4.6,-,N/A,,Clear,270,2013-08-22 13:32:00
9:52 AM,72.0,65.7,80,30.05,10.0,WNW,5.8,-,N/A,,Clear,290,2013-08-22 13:52:00
10:12 AM,73.2,65.8,78,30.05,10.0,WNW,6.9,-,N/A,,Clear,300,2013-08-22 14:12:00
10:32 AM,75.0,66.2,74,30.05,10.0,WNW,4.6,-,N/A,,Clear,290,2013-08-22 14:32:00
10:52 AM,76.1,66.4,72,30.06,10.0,WSW,6.9,-,N/A,,Clear,250,2013-08-22 14:52:00
11:12 AM,77.2,66.0,68,30.06,10.0,West,4.6,-,N/A,,Clear,280,2013-08-22 15:12:00
11:32 AM,77.2,65.5,67,30.06,10.0,WSW,4.6,-,N/A,,Clear,250,2013-08-22 15:32:00
11:52 AM,78.6,66.4,66,30.07,10.0,West,8.1,-,N/A,,Clear,260,2013-08-22 15:52:00
12:13 PM,78.1,66.0,66,30.07,10.0,WSW,5.8,-,N/A,,Clear,250,2013-08-22 16:13:00
12:30 PM,78.3,65.8,65,30.07,10.0,West,10.4,-,N/A,,Clear,280,2013-08-22 16:30:00
12:50 PM,78.8,66.2,65,30.06,10.0,NW,4.6,-,N/A,,Clear,310,2013-08-22 16:50:00
1:10 PM,79.0,66.4,65,30.05,10.0,NNW,3.5,-,N/A,,Clear,340,2013-08-22 17:10:00
1:30 PM,79.2,66.6,65,30.05,10.0,WNW,5.8,-,N/A,,Scattered Clouds,300,2013-08-22 17:30:00
1:50 PM,79.7,66.9,65,30.05,10.0,West,6.9,-,N/A,,Mostly Cloudy,260,2013-08-22 17:50:00
2:10 PM,80.1,67.1,64,30.06,10.0,West,5.8,-,N/A,,Overcast,260,2013-08-22 18:10:00
2:30 PM,80.6,67.5,64,30.06,10.0,West,6.9,-,N/A,,Mostly Cloudy,280,2013-08-22 18:30:00
2:51 PM,80.8,67.3,63,30.06,10.0,West,8.1,-,N/A,,Scattered Clouds,280,2013-08-22 18:51:00
3:11 PM,81.0,66.7,62,30.05,10.0,West,4.6,-,N/A,,Scattered Clouds,280,2013-08-22 19:11:00
3:31 PM,80.8,64.0,57,30.04,10.0,NW,4.6,-,N/A,,Scattered Clouds,320,2013-08-22 19:31:00
3:51 PM,81.0,65.8,60,30.04,10.0,WNW,6.9,-,N/A,,Clear,300,2013-08-22 19:51:00
4:11 PM,80.6,63.5,56,30.03,10.0,WNW,4.6,-,N/A,,Clear,300,2013-08-22 20:11:00
4:28 PM,80.4,64.4,58,30.03,10.0,WNW,5.8,-,N/A,,Clear,290,2013-08-22 20:28:00
4:49 PM,80.1,65.1,60,30.03,10.0,WNW,6.9,-,N/A,,Clear,300,2013-08-22 20:49:00
5:09 PM,79.7,66.0,63,30.03,10.0,West,5.8,-,N/A,,Clear,280,2013-08-22 21:09:00
5:29 PM,79.7,66.4,64,30.03,10.0,West,5.8,-,N/A,,Clear,280,2013-08-22 21:29:00
5:49 PM,79.3,66.6,65,30.04,10.0,West,4.6,-,N/A,,Scattered Clouds,280,2013-08-22 21:49:00
6:09 PM,79.0,66.6,66,30.03,10.0,West,6.9,-,N/A,,Scattered Clouds,280,2013-08-22 22:09:00
6:29 PM,78.8,67.1,67,30.04,10.0,WNW,6.9,-,N/A,,Scattered Clouds,290,2013-08-22 22:29:00
6:49 PM,78.1,68.5,72,30.04,10.0,West,6.9,-,N/A,,Scattered Clouds,280,2013-08-22 22:49:00
7:09 PM,77.2,68.4,74,30.03,10.0,West,8.1,-,N/A,,Clear,280,2013-08-22 23:09:00
7:32 PM,77.0,68.2,74,30.04,10.0,West,6.9,-,N/A,,Clear,280,2013-08-22 23:32:00
7:52 PM,76.1,68.4,77,30.04,10.0,West,6.9,-,N/A,,Clear,280,2013-08-22 23:52:00
8:12 PM,75.0,68.0,79,30.04,10.0,West,5.8,-,N/A,,Clear,280,2013-08-23 00:12:00
8:32 PM,73.4,67.6,82,30.05,10.0,West,3.5,-,N/A,,Scattered Clouds,280,2013-08-23 00:32:00
8:52 PM,72.5,67.6,85,30.05,10.0,WNW,4.6,-,N/A,,Clear,300,2013-08-23 00:52:00
9:12 PM,70.7,66.9,88,30.06,10.0,WNW,3.5,-,N/A,,Clear,300,2013-08-23 01:12:00
9:32 PM,70.7,67.3,89,30.06,10.0,NW,3.5,-,N/A,,Clear,310,2013-08-23 01:32:00
9:52 PM,68.9,66.2,91,30.06,10.0,NW,4.6,-,N/A,,Clear,310,2013-08-23 01:52:00
10:08 PM,68.9,64.6,86,30.07,10.0,NW,4.6,-,N/A,,Clear,320,2013-08-23 02:08:00
10:30 PM,68.0,60.1,76,30.08,10.0,NNW,5.8,-,N/A,,Clear,330,2013-08-23 02:30:00
10:50 PM,67.3,57.6,71,30.09,10.0,NNW,5.8,-,N/A,,Clear,330,2013-08-23 02:50:00
11:10 PM,65.7,57.2,74,30.10,10.0,NNE,3.5,-,N/A,,Clear,20,2013-08-23 03:10:00
11:30 PM,65.3,56.3,73,30.10,10.0,NNW,5.8,-,N/A,,Clear,340,2013-08-23 03:30:00
11:50 PM,64.8,55.8,73,30.11,10.0,North,5.8,-,N/A,,Clear,350,2013-08-23 03:50:00